Salem, IL

9:32 AM CST on February 11, 2016 (GMT -0600)
Salem-Leckrone

Weather History for KSLO - March, 2014

Change the Weather History Date:

Tuesday, March 11, 2014

  Actual Average Record
Temperature  
Mean Temperature 62 °F -  
Max Temperature 75 °F 54 °F 78 °F (1967)
Min Temperature 49 °F 33 °F 14 °F (1969)
Degree Days  
Heating Degree Days 3    
Growing Degree Days 12 (Base 50)    
Moisture  
Dew Point 47 °F    
Average Humidity 60    
Maximum Humidity 82    
Minimum Humidity 31    
Precipitation  
Precipitation 0.00 in - - ()
Sea Level Pressure  
Sea Level Pressure 29.63 in    
Wind  
Wind Speed 10 mph (SSW)    
Max Wind Speed 17 mph    
Max Gust Speed 25 mph    
Visibility 10 miles    
Events Rain    
Averages and records for this station are not official NWS values.
T = Trace of Precipitation, MM = Missing Value Source: NWS Daily Summary

Daily Weather History Graph

Daily Weather History Graph

Search for Another Location

Airport or City:

Trip Planner

Search our weather history database for the weather conditions in past years. The results will help you decide how hot, cold, wet, or windy it might be!

Date:

Astronomy

Mar. 11, 2014 Rise Set
Actual Time 7:13 AM CDT 6:58 PM CDT
Civil Twilight 6:46 AM CDT 7:25 PM CDT
Nautical Twilight 6:16 AM CDT 7:56 PM CDT
Astronomical Twilight 5:45 AM CDT 8:27 PM CDT
Moon 2:37 PM CDT 4:04 AM CDT
Length of Visible Light 12h 38m
Length of Day
11h 45m
Waxing Gibbous, 78% of the Moon is Illuminated
Mar 11
Waxing Gibbous
Mar 16
Full
Mar 23
Last Quarter
Mar 30
New
Apr 7
First Quarter

Hourly Weather History & Observations

Time (CDT) Temp. Dew Point Humidity Pressure Visibility Wind Dir Wind Speed Gust Speed Precip Events Conditions
12:20 AM 55.4 °F 48.2 °F 77% 29.73 in 10.0 mi SSW 13.8 mph - N/A   Clear
12:35 AM 55.4 °F 48.2 °F 77% 29.73 in 10.0 mi SSW 13.8 mph - N/A   Clear
12:55 AM 54.9 °F 47.7 °F 77% 29.72 in 10.0 mi SSW 13.8 mph 20.7 mph N/A   Clear
1:15 AM 54.7 °F 47.5 °F 77% 29.72 in 10.0 mi SSW 12.7 mph - N/A   Clear
1:35 AM 54.7 °F 47.3 °F 76% 29.72 in 10.0 mi SSW 12.7 mph - N/A   Clear
1:55 AM 53.6 °F 46.6 °F 77% 29.72 in 10.0 mi SSW 11.5 mph - N/A   Clear
2:15 AM 53.2 °F 46.4 °F 78% 29.73 in 10.0 mi SW 9.2 mph - N/A   Clear
2:35 AM 52.2 °F 45.7 °F 79% 29.73 in 10.0 mi SW 8.1 mph - N/A   Clear
2:55 AM 51.4 °F 45.7 °F 81% 29.72 in 10.0 mi SW 6.9 mph - N/A   Clear
3:15 AM 50.7 °F 45.5 °F 82% 29.72 in 10.0 mi SSW 8.1 mph - N/A   Clear
3:35 AM 51.1 °F 45.5 °F 81% 29.72 in 10.0 mi SSW 9.2 mph - N/A   Clear
4:00 AM 51.3 °F 45.0 °F 79% 29.71 in 10.0 mi SSW 9.2 mph - N/A   Clear
4:15 AM 51.3 °F 44.6 °F 78% 29.70 in 10.0 mi SSW 9.2 mph - N/A   Clear
4:35 AM 50.7 °F 43.9 °F 77% 29.70 in 10.0 mi SSW 9.2 mph - N/A   Clear
4:55 AM 51.1 °F 43.7 °F 76% 29.70 in 10.0 mi SSW 8.1 mph - N/A   Clear
5:15 AM 51.6 °F 43.9 °F 75% 29.70 in 10.0 mi SSW 8.1 mph - N/A   Clear
5:35 AM 51.8 °F 43.7 °F 74% 29.70 in 10.0 mi South 8.1 mph - N/A   Clear
5:55 AM 50.4 °F 43.7 °F 78% 29.70 in 10.0 mi South 8.1 mph - N/A   Clear
6:15 AM 50.0 °F 43.3 °F 78% 29.70 in 10.0 mi SSW 8.1 mph - N/A   Clear
6:35 AM 49.6 °F 42.8 °F 77% 29.70 in 10.0 mi SSW 6.9 mph - N/A   Clear
6:55 AM 49.5 °F 42.4 °F 77% 29.70 in 10.0 mi SSW 5.8 mph - N/A   Clear
7:15 AM 49.8 °F 41.9 °F 74% 29.69 in 10.0 mi SSW 8.1 mph - N/A   Clear
7:35 AM 49.5 °F 41.9 °F 75% 29.70 in 10.0 mi SSW 6.9 mph - N/A   Clear
7:55 AM 50.4 °F 41.9 °F 73% 29.70 in 10.0 mi SSW 5.8 mph - N/A   Clear
8:15 AM 50.4 °F 41.9 °F 73% 29.69 in 10.0 mi SSW 6.9 mph - N/A   Clear
8:35 AM 51.1 °F 42.4 °F 72% 29.70 in 10.0 mi South 6.9 mph - N/A   Clear
8:55 AM 53.2 °F 43.0 °F 68% 29.70 in 10.0 mi South 6.9 mph - N/A   Clear
9:15 AM 54.7 °F 43.7 °F 66% 29.70 in 10.0 mi SSW 9.2 mph - N/A   Clear
9:35 AM 56.1 °F 43.9 °F 64% 29.70 in 10.0 mi SSW 10.4 mph - N/A   Clear
9:55 AM 58.1 °F 44.1 °F 60% 29.70 in 10.0 mi SSW 9.2 mph - N/A   Clear
10:15 AM 60.8 °F 44.1 °F 54% 29.69 in 10.0 mi SW 9.2 mph - N/A   Clear
10:35 AM 63.0 °F 44.6 °F 51% 29.69 in 10.0 mi SW 8.1 mph - N/A   Clear
10:55 AM 64.4 °F 44.4 °F 48% 29.68 in 10.0 mi SW 8.1 mph - N/A   Clear
11:15 AM 65.8 °F 44.8 °F 47% 29.67 in 10.0 mi WSW 9.2 mph - N/A   Clear
11:35 AM 68.0 °F 45.9 °F 45% 29.67 in 10.0 mi WSW 9.2 mph - N/A   Clear
12:00 PM 68.9 °F 46.2 °F 44% 29.66 in 10.0 mi WSW 6.9 mph - N/A   Clear
12:15 PM 69.6 °F 45.7 °F 42% 29.66 in 10.0 mi SW 5.8 mph - N/A   Clear
12:35 PM 71.1 °F 46.2 °F 41% 29.66 in 10.0 mi SSW 9.2 mph - N/A   Clear
12:55 PM 72.0 °F 46.6 °F 40% 29.65 in 10.0 mi South 5.8 mph - N/A   Clear
1:15 PM 72.9 °F 46.6 °F 39% 29.64 in 10.0 mi SSW 6.9 mph - N/A   Clear
1:35 PM 74.1 °F 46.8 °F 38% 29.63 in 10.0 mi SSW 12.7 mph - N/A   Clear
1:55 PM 74.8 °F 45.1 °F 35% 29.61 in 10.0 mi South 10.4 mph 18.4 mph N/A   Clear
2:15 PM 75.6 °F 44.1 °F 32% 29.60 in 10.0 mi South 9.2 mph 18.4 mph N/A   Clear
2:35 PM 75.4 °F 42.6 °F 31% 29.59 in 10.0 mi South 13.8 mph 21.9 mph N/A   Clear
2:55 PM 75.6 °F 42.8 °F 31% 29.58 in 10.0 mi SSW 15.0 mph 21.9 mph N/A   Clear
3:15 PM 75.6 °F 43.2 °F 31% 29.58 in 10.0 mi South 15.0 mph 24.2 mph N/A   Clear
3:35 PM 75.4 °F 44.8 °F 34% 29.58 in 10.0 mi South 17.3 mph 25.3 mph N/A   Mostly Cloudy
3:55 PM 75.4 °F 44.1 °F 33% 29.57 in 10.0 mi SSW 15.0 mph - N/A   Scattered Clouds
4:15 PM 75.2 °F 44.6 °F 34% 29.56 in 10.0 mi South 16.1 mph 23.0 mph N/A   Scattered Clouds
4:35 PM 75.2 °F 44.8 °F 34% 29.55 in 10.0 mi South 11.5 mph - N/A   Clear
4:55 PM 75.2 °F 46.0 °F 35% 29.54 in 10.0 mi South 15.0 mph 18.4 mph N/A   Clear
5:15 PM 75.0 °F 44.1 °F 33% 29.54 in 10.0 mi South 11.5 mph 16.1 mph N/A   Clear
5:35 PM 74.8 °F 44.2 °F 33% 29.53 in 10.0 mi South 16.1 mph - N/A   Clear
5:55 PM 73.0 °F 44.6 °F 36% 29.53 in 10.0 mi SSW 12.7 mph 18.4 mph N/A   Clear
6:15 PM 72.3 °F 46.4 °F 40% 29.54 in 10.0 mi South 11.5 mph 18.4 mph N/A   Scattered Clouds
6:35 PM 71.4 °F 47.3 °F 42% 29.54 in 10.0 mi South 9.2 mph 17.3 mph N/A   Scattered Clouds
6:55 PM 70.7 °F 48.6 °F 45% 29.54 in 10.0 mi South 8.1 mph - N/A   Mostly Cloudy
7:15 PM 70.2 °F 49.6 °F 48% 29.54 in 10.0 mi SSE 5.8 mph - N/A   Mostly Cloudy
7:35 PM 69.4 °F 52.3 °F 54% 29.55 in 10.0 mi SSE 9.2 mph - N/A   Scattered Clouds
7:55 PM 68.9 °F 54.3 °F 60% 29.55 in 10.0 mi SSE 8.1 mph - N/A   Clear
8:15 PM 68.0 °F 55.4 °F 64% 29.54 in 10.0 mi South 8.1 mph - N/A   Scattered Clouds
8:35 PM 67.8 °F 55.6 °F 65% 29.53 in 10.0 mi SSE 10.4 mph - N/A   Scattered Clouds
8:55 PM 67.6 °F 56.3 °F 67% 29.53 in 10.0 mi South 11.5 mph 17.3 mph N/A   Scattered Clouds
9:15 PM 67.1 °F 56.5 °F 69% 29.52 in 10.0 mi South 10.4 mph - N/A   Scattered Clouds
9:35 PM 66.2 °F 56.5 °F 71% 29.52 in 10.0 mi South 6.9 mph - N/A   Scattered Clouds
9:55 PM 66.4 °F 56.7 °F 71% 29.51 in 10.0 mi South 6.9 mph - N/A   Mostly Cloudy
10:15 PM 66.2 °F 56.8 °F 72% 29.50 in 10.0 mi South 9.2 mph - N/A Rain Light Rain
10:35 PM 64.9 °F 57.2 °F 76% 29.49 in 10.0 mi South 8.1 mph - N/A Rain Light Rain
10:55 PM 64.4 °F 57.2 °F 77% 29.47 in 10.0 mi South 8.1 mph - N/A   Mostly Cloudy
11:15 PM 64.4 °F 57.0 °F 77% 29.46 in 10.0 mi South 11.5 mph - N/A   Mostly Cloudy
11:35 PM 64.4 °F 56.8 °F 76% 29.45 in 10.0 mi South 10.4 mph - N/A   Overcast
11:55 PM 63.9 °F 56.8 °F 78% 29.44 in 10.0 mi South 11.5 mph - N/A   Overcast